Regional Weather Roundup
Issued by NWS

Home | Current Version | Previous Version | Text Only | Print | Product List | Glossary Off
Versions: 1 2 3 4 5 6 7 8 9 10 11 12 13 14 15 16 17 18 19 20 21 22 23 24 25 26 27 28 29 30 31 32 33 34 35 36 37 38 39 40 41 42 43 44 45 46 47 48 49 50

000
ASUS43 KLSX 260157
RWRMO

WEATHER SUMMARY FOR MISSOURI
NATIONAL WEATHER SERVICE SPRINGFIELD MO
800 PM CST SAT FEB 25 2017

NOTE: "FAIR" INDICATES FEW OR NO CLOUDS BELOW 12,000 FEET WITH NO
       SIGNIFICANT WEATHER AND/OR OBSTRUCTIONS TO VISIBILITY.
       CURRENT SKY AND/OR WEATHER CONDITIONS ARE NOT AVAILABLE FOR
       CHILLICOTHE AND FARMINGTON.

MOZ001>031-035>038-043-044-053-054-260300-
...NORTHERN AND WESTERN MISSOURI...

CITY           SKY/WX    TMP DP  RH WIND       PRES   REMARKS
KANSAS CTY INT CLOUDY    33  12  41 S6        30.03F WCI  28
LEE`S SUMMIT   CLEAR     36  11  35 S8        30.05F WCI  30
ST JOSEPH      PTCLDY    30  15  53 S8        30.03F WCI  22
CHILLICOTHE      N/A     27  16  63 CALM      30.07F

$$
MOZ066>068-077>081-088>096-101>105-260300-
...SOUTHWEST MISSOURI...

CITY           SKY/WX    TMP DP  RH WIND       PRES   REMARKS
SPRINGFIELD    CLEAR     29  16  58 S3        30.08F
JOPLIN         CLEAR     34  15  46 CALM      30.09F
BRANSON        CLEAR     32  16  51 CALM      30.10F

$$
MOZ032>034-039>042-045>050-055>058-069>072-260300-
...CENTRAL MISSOURI...

CITY           SKY/WX    TMP DP  RH WIND       PRES   REMARKS
COLUMBIA       NOT AVBL
JEFFERSON CITY CLEAR     31  13  47 CALM      30.11S
ROLLA          CLEAR     24  14  65 CALM      30.09S
SEDALIA        CLEAR     34   9  35 S6        30.09F WCI  29
WARRENSBURG    CLEAR     34  10  37 SE5       30.08S WCI  30

$$
MOZ051-052-059>065-260300-
...EAST CENTRAL MISSOURI...

CITY           SKY/WX    TMP DP  RH WIND       PRES   REMARKS
ST LOUIS INTL  NOT AVBL

$$
MOZ072>076-082>087-097>100-106>115-260300-
...SOUTH CENTRAL AND SOUTHEAST MISSOURI...

CITY           SKY/WX    TMP DP  RH WIND       PRES   REMARKS
CAPE GIRARDEAU CLEAR     34  14  43 N6        30.14R WCI  29
POPLAR BLUFF   CLEAR     36  23  59 CALM      30.14R
WEST PLAINS    CLEAR     33  15  47 CALM      30.11S

$$


USA.gov is the U.S. government's official web portal to all federal, state and local government web resources and services.